BAW787 ESGG-EGLL

Flight info

Callsign BAW787
Flight time N/A
Altitude 38000
Route VADIN3J VADIN DCT ABINO DCT ATTUS DCT BEDUM DCT SPY DCT ABNED L980 LOGAN LOGAN2H
Aircraft A319/M-SDE3FGHIRWY/LB1

Departure

Time 2026-04-30 06:19
Airport Göteborg Landvetter Airport (ESGG)

Arrival

Time N/A
Airport London Heathrow Airport (EGLL)
Time Latitude Longitude Altitude Speed Heading
2026-04-30 06:00 57.66533 12.29105 516 ft 0 kts 116°
2026-04-30 06:10 57.66543 12.29069 516 ft 4 kts 116°
2026-04-30 06:10 57.66552 12.29034 516 ft 4 kts 108°
2026-04-30 06:11 57.66556 12.28992 516 ft 3 kts 116°
2026-04-30 06:11 57.66567 12.28965 516 ft 4 kts 191°
2026-04-30 06:11 57.66590 12.28982 516 ft 4 kts 206°
2026-04-30 06:11 57.66611 12.29001 516 ft 1 kts 206°
2026-04-30 06:13 57.66603 12.28987 516 ft 2 kts 233°
2026-04-30 06:13 57.66608 12.28964 516 ft 4 kts 300°
2026-04-30 06:14 57.66628 12.28904 516 ft 7 kts 299°
2026-04-30 06:14 57.66636 12.28873 517 ft 0 kts 295°
2026-04-30 06:14 57.66639 12.28861 516 ft 3 kts 297°
2026-04-30 06:15 57.66670 12.28847 516 ft 6 kts 17°
2026-04-30 06:15 57.66718 12.28891 516 ft 9 kts 26°
2026-04-30 06:15 57.66785 12.28952 516 ft 12 kts 26°
2026-04-30 06:15 57.66871 12.29031 516 ft 15 kts 27°
2026-04-30 06:16 57.66973 12.29127 516 ft 18 kts 26°
2026-04-30 06:16 57.67094 12.29239 516 ft 21 kts 26°
2026-04-30 06:16 57.67233 12.29364 516 ft 24 kts 26°
2026-04-30 06:16 57.67371 12.29485 516 ft 10 kts 24°
2026-04-30 06:17 57.67408 12.29495 516 ft 6 kts 338°
2026-04-30 06:17 57.67431 12.29407 516 ft 9 kts 293°
2026-04-30 06:17 57.67460 12.29273 515 ft 12 kts 281°
2026-04-30 06:17 57.67458 12.29188 515 ft 7 kts 265°
2026-04-30 06:18 57.67451 12.29073 515 ft 10 kts 258°
2026-04-30 06:18 57.67397 12.28993 515 ft 3 kts 206°
2026-04-30 06:18 57.67391 12.28987 515 ft 1 kts 205°
2026-04-30 06:18 57.67345 12.28946 515 ft 14 kts 207°
2026-04-30 06:19 57.67053 12.28684 514 ft 83 kts 206°
2026-04-30 06:19 57.66344 12.28036 511 ft 145 kts 206°
2026-04-30 06:19 57.65329 12.27122 860 ft 168 kts 206°
2026-04-30 06:19 57.64267 12.26184 1635 ft 172 kts 209°
2026-04-30 06:20 57.63144 12.25177 2224 ft 186 kts 211°
2026-04-30 06:20 57.61928 12.24056 2576 ft 209 kts 210°
2026-04-30 06:20 57.60454 12.23036 2989 ft 239 kts 195°
2026-04-30 06:20 57.58741 12.22596 3593 ft 263 kts 187°
2026-04-30 06:21 57.56873 12.22390 4518 ft 273 kts 184°
2026-04-30 06:21 57.54959 12.22241 5552 ft 279 kts 184°
2026-04-30 06:21 57.53001 12.21998 6538 ft 285 kts 185°
2026-04-30 06:21 57.51001 12.21660 7471 ft 292 kts 185°
2026-04-30 06:22 57.48961 12.21260 8421 ft 298 kts 186°
2026-04-30 06:22 57.46884 12.20826 9368 ft 303 kts 186°
2026-04-30 06:22 57.44805 12.19983 10284 ft 310 kts 200°
2026-04-30 06:22 57.42853 12.18184 10937 ft 323 kts 215°
2026-04-30 06:23 57.41105 12.15375 11324 ft 342 kts 229°
2026-04-30 06:23 57.39434 12.12152 12011 ft 351 kts 228°
2026-04-30 06:23 57.37714 12.08883 12777 ft 357 kts 228°
2026-04-30 06:23 57.35961 12.05583 13545 ft 363 kts 228°
2026-04-30 06:24 57.34171 12.02237 14313 ft 368 kts 227°
2026-04-30 06:24 57.32350 11.98845 15000 ft 373 kts 227°
2026-04-30 06:24 57.30513 11.95424 15699 ft 377 kts 227°
2026-04-30 06:24 57.28658 11.91968 16414 ft 380 kts 227°
2026-04-30 06:25 57.26785 11.88477 17118 ft 384 kts 227°
2026-04-30 06:25 57.24892 11.84953 17818 ft 388 kts 227°
2026-04-30 06:25 57.22978 11.81397 18510 ft 392 kts 227°
2026-04-30 06:25 57.21041 11.77809 19147 ft 396 kts 227°
2026-04-30 06:26 57.19084 11.74192 19753 ft 400 kts 227°
2026-04-30 06:26 57.17108 11.70546 20364 ft 404 kts 227°
2026-04-30 06:26 57.15115 11.66867 20975 ft 407 kts 227°
2026-04-30 06:26 57.13033 11.63285 21574 ft 413 kts 221°
2026-04-30 06:27 57.10778 11.59975 22161 ft 417 kts 220°
2026-04-30 06:27 57.08497 11.56637 22721 ft 421 kts 220°
2026-04-30 06:27 57.06193 11.53272 23298 ft 425 kts 220°
2026-04-30 06:27 57.03896 11.49922 23867 ft 429 kts 220°
2026-04-30 06:28 57.01549 11.46504 24387 ft 432 kts 220°
2026-04-30 06:28 56.99183 11.43065 24885 ft 435 kts 220°
2026-04-30 06:28 56.96803 11.39609 25399 ft 438 kts 220°
2026-04-30 06:28 56.94412 11.36137 25897 ft 440 kts 220°
2026-04-30 06:29 56.92008 11.32649 26390 ft 442 kts 220°
2026-04-30 06:29 56.89590 11.29151 26886 ft 444 kts 220°
2026-04-30 06:29 56.87155 11.25642 27360 ft 447 kts 220°
2026-04-30 06:29 56.84703 11.22117 27807 ft 450 kts 220°
2026-04-30 06:30 56.82231 11.18574 28268 ft 453 kts 220°
2026-04-30 06:30 56.79745 11.15012 28737 ft 456 kts 220°
2026-04-30 06:30 56.77245 11.11429 29209 ft 458 kts 220°
2026-04-30 06:30 56.74732 11.07830 29684 ft 461 kts 220°
2026-04-30 06:31 56.72204 11.04216 30148 ft 463 kts 220°
2026-04-30 06:31 56.69662 11.00588 30598 ft 466 kts 220°
2026-04-30 06:31 56.67104 10.96948 30978 ft 468 kts 220°
2026-04-30 06:31 56.64533 10.93304 31353 ft 470 kts 220°
2026-04-30 06:32 56.61945 10.89646 31699 ft 473 kts 220°
2026-04-30 06:32 56.59344 10.85964 32026 ft 476 kts 220°
2026-04-30 06:32 56.56732 10.82268 32443 ft 476 kts 220°
2026-04-30 06:32 56.54127 10.78585 32959 ft 474 kts 220°
2026-04-30 06:33 56.51527 10.74925 33478 ft 473 kts 220°
2026-04-30 06:33 56.48933 10.71287 34001 ft 471 kts 219°
2026-04-30 06:33 56.46344 10.67670 34526 ft 470 kts 219°
2026-04-30 06:33 56.43763 10.64067 34987 ft 468 kts 219°
2026-04-30 06:34 56.41196 10.60478 35460 ft 466 kts 219°
2026-04-30 06:34 56.38640 10.56908 35918 ft 464 kts 219°
2026-04-30 06:34 56.36093 10.53354 36374 ft 461 kts 219°
2026-04-30 06:34 56.33559 10.49827 36819 ft 459 kts 219°
2026-04-30 06:35 56.31035 10.46322 37266 ft 457 kts 219°
2026-04-30 06:35 56.28520 10.42842 37693 ft 455 kts 219°
2026-04-30 06:35 56.26014 10.39380 38112 ft 453 kts 219°
2026-04-30 06:35 56.23517 10.35934 38452 ft 452 kts 219°
2026-04-30 06:36 56.21023 10.32497 38497 ft 451 kts 219°
2026-04-30 06:36 56.16044 10.25664 38520 ft 450 kts 219°
2026-04-30 06:37 56.11068 10.18838 38520 ft 451 kts 218°
2026-04-30 06:37 56.06086 10.12016 38521 ft 451 kts 218°
2026-04-30 06:38 56.01131 10.05269 38517 ft 451 kts 218°
2026-04-30 06:38 55.96123 9.98525 38523 ft 451 kts 217°
2026-04-30 06:39 55.90932 9.92233 38529 ft 451 kts 213°
2026-04-30 06:39 55.85618 9.86257 38520 ft 452 kts 213°
2026-04-30 06:40 55.80315 9.80244 38516 ft 452 kts 214°
2026-04-30 06:40 55.75042 9.74148 38517 ft 452 kts 214°
2026-04-30 06:41 55.69774 9.68030 38521 ft 453 kts 214°
2026-04-30 06:41 55.64498 9.61933 38523 ft 453 kts 214°
2026-04-30 06:42 55.59213 9.55871 38522 ft 453 kts 214°
2026-04-30 06:42 55.53922 9.49834 38503 ft 453 kts 213°
2026-04-30 06:43 55.48663 9.43849 38525 ft 453 kts 213°
2026-04-30 06:43 55.43370 9.37833 38532 ft 453 kts 213°
2026-04-30 06:44 55.38070 9.31835 38544 ft 453 kts 213°
2026-04-30 06:44 55.32766 9.25853 38542 ft 453 kts 213°
2026-04-30 06:45 55.27457 9.19893 38539 ft 453 kts 213°
2026-04-30 06:45 55.22148 9.13939 38540 ft 453 kts 213°
2026-04-30 06:46 55.16832 9.07999 38547 ft 453 kts 213°
2026-04-30 06:46 55.11510 9.02067 38534 ft 454 kts 213°
2026-04-30 06:47 55.06180 8.96144 38531 ft 454 kts 213°
2026-04-30 06:47 55.00840 8.90235 38529 ft 455 kts 213°
2026-04-30 06:48 54.95532 8.84390 38528 ft 455 kts 213°
2026-04-30 06:48 54.90197 8.78460 38526 ft 455 kts 217°
2026-04-30 06:49 54.85351 8.71421 38510 ft 455 kts 222°
2026-04-30 06:49 54.80547 8.64293 38523 ft 454 kts 221°
2026-04-30 06:50 54.75734 8.57201 38544 ft 454 kts 221°
2026-04-30 06:50 54.70924 8.50134 38541 ft 454 kts 221°
2026-04-30 06:51 54.66108 8.43072 38538 ft 454 kts 221°
2026-04-30 06:51 54.61291 8.36027 38535 ft 454 kts 221°
2026-04-30 06:52 54.56471 8.28992 38530 ft 454 kts 221°
2026-04-30 06:52 54.51642 8.21992 38539 ft 454 kts 221°
2026-04-30 06:53 54.46808 8.15008 38533 ft 454 kts 221°
2026-04-30 06:53 54.41974 8.08035 38529 ft 454 kts 221°
2026-04-30 06:54 54.37132 8.01075 38509 ft 454 kts 220°
2026-04-30 06:54 54.32291 7.94135 38534 ft 453 kts 220°
2026-04-30 06:55 54.27456 7.87215 38541 ft 453 kts 220°
2026-04-30 06:55 54.22618 7.80323 38539 ft 453 kts 220°
2026-04-30 06:56 54.17774 7.73450 38531 ft 453 kts 220°
2026-04-30 06:56 54.12928 7.66584 38534 ft 453 kts 220°